Location: Glenbow
(51.1592°N, 114.3828°W)
Time: 20:17:27
(UTC+00:00)

Envisat - Pass Details

Date: 08 December 2021
Orbit: 764 x 766 km, 98.2° (Epoch: 26 January)

Event Time Altitude Azimuth Distance (km) Brightness Sun altitude
Rises 14:41:15 0° 3° (N) 3,248 6.0 -7.1°
Reaches altitude 10° 14:44:29 10° 342° (NNW) 2,316 5.1 -6.7°
Maximum altitude 14:47:20 15° 307° (NW) 1,968 4.5 -6.3°
Drops below altitude 10° 14:50:10 10° 273° (W) 2,308 4.9 -5.9°
Sets 14:53:23 0° 251° (WSW) 3,229 5.8 -5.4°
